| time (UTC) | temp F | wind direction | speed MPH | gust MPH | rain 1hr in | rain 24hr in | rain mn in | humidity % | barometer mb |
| 20260503184604 | 61 | 254 | 3.0 | 3.0 | 0.00 | 0.00 | 0.00 | 44 | 1014.2 |
| 20260503184100 | 61 | 255 | 2.0 | 2.0 | 0.00 | 0.00 | 0.00 | 45 | 1014.2 |
| 20260503183557 | 61 | 257 | 2.0 | 3.0 | 0.00 | 0.00 | 0.00 | 42 | 1014.3 |
| 20260503183054 | 62 | 323 | 3.0 | 6.0 | 0.00 | 0.00 | 0.00 | 41 | 1014.4 |
| 20260503182553 | 60 | 238 | 2.0 | 3.0 | 0.00 | 0.00 | 0.00 | 42 | 1014.4 |
| 20260503182050 | 59 | 279 | 3.0 | 3.0 | 0.00 | 0.00 | 0.00 | 48 | 1014.3 |
| 20260503181547 | 60 | 287 | 1.0 | 3.0 | 0.00 | 0.00 | 0.00 | 45 | 1014.5 |
| 20260503181043 | 62 | 254 | 3.0 | 6.0 | 0.00 | 0.00 | 0.00 | 46 | 1014.6 |
| 20260503180541 | 61 | 259 | 2.0 | 3.0 | 0.00 | 0.00 | 0.00 | 47 | 1014.4 |
| 20260503180038 | 61 | 113 | 2.0 | 3.0 | 0.00 | 0.00 | 0.00 | 46 | 1014.7 |
| 20260503175535 | 60 | 270 | 2.0 | 2.0 | 0.00 | 0.00 | 0.00 | 45 | 1014.6 |
| 20260503175033 | 61 | 276 | 3.0 | 5.0 | 0.00 | 0.00 | 0.00 | 43 | 1014.6 |
| 20260503174530 | 61 | 286 | 3.0 | 3.0 | 0.00 | 0.00 | 0.00 | 46 | 1014.8 |
| 20260503174026 | 60 | 249 | 4.0 | 5.0 | 0.00 | 0.00 | 0.00 | 40 | 1015.0 |
| 20260503173521 | 60 | 227 | 3.0 | 6.0 | 0.00 | 0.00 | 0.00 | 44 | 1014.8 |
| 20260503173017 | 60 | 100 | 3.0 | 5.0 | 0.00 | 0.00 | 0.00 | 45 | 1015.0 |
| 20260503172515 | 60 | 275 | 5.0 | 6.0 | 0.00 | 0.00 | 0.00 | 43 | 1014.9 |
| 20260503172012 | 59 | 264 | 3.0 | 3.0 | 0.00 | 0.00 | 0.00 | 47 | 1014.7 |
| 20260503171508 | 60 | 227 | 2.0 | 5.0 | 0.00 | 0.00 | 0.00 | 45 | 1015.1 |
| 20260503171006 | 60 | 266 | 2.0 | 3.0 | 0.00 | 0.00 | 0.00 | 44 | 1015.1 |
| 20260503170502 | 60 | 262 | 1.0 | 2.0 | 0.00 | 0.00 | 0.00 | 46 | 1015.1 |
| 20260503150855 | 55 | 259 | 1.0 | 1.0 | 0.00 | 0.00 | 0.00 | 48 | 1016.0 |
| 20260503150351 | 55 | 253 | 0.0 | 1.0 | 0.00 | 0.00 | 0.00 | 45 | 1015.9 |
| 20260503140315 | 51 | 266 | 2.0 | 3.0 | 0.00 | 0.00 | 0.00 | 58 | 1016.4 |
| 20260503131244 | 45 | 261 | 1.0 | 1.0 | 0.00 | 0.00 | 0.00 | 74 | 1016.9 |
| 20260503130742 | 45 | 253 | 2.0 | 2.0 | 0.00 | 0.00 | 0.00 | 74 | 1017.2 |
| 20260503130239 | 43 | 253 | 3.0 | 3.0 | 0.00 | 0.00 | 0.00 | 79 | 1017.1 |
| 20260503120205 | 35 | 259 | 0.0 | 0.0 | 0.00 | 0.00 | 0.00 | 99 | 1016.5 |
| 20260503110632 | 30 | 254 | 0.0 | 0.0 | 0.00 | 0.00 | 0.00 | 99 | 1016.4 |
| 20260503110130 | 30 | 253 | 0.0 | 0.0 | 0.00 | 0.00 | 0.00 | 99 | 1016.1 |
| 20260503081446 | 32 | 254 | 0.0 | 0.0 | 0.00 | 0.00 | 0.00 | 99 | 1015.6 |
| 20260503080943 | 31 | 254 | 0.0 | 0.0 | 0.00 | 0.00 | 0.00 | 99 | 1015.7 |
| 20260503080439 | 31 | 254 | 0.0 | 0.0 | 0.00 | 0.00 | 0.00 | 99 | 1015.6 |
| 20260503072916 | 32 | 254 | 0.0 | 0.0 | 0.00 | 0.00 | 0.00 | 99 | 1015.6 |
| 20260503072413 | 32 | 254 | 0.0 | 0.0 | 0.00 | 0.00 | 0.00 | 99 | 1015.7 |
| 20260503071909 | 32 | 254 | 0.0 | 0.0 | 0.00 | 0.00 | 0.00 | 99 | 1015.5 |
| 20260503071407 | 32 | 254 | 0.0 | 0.0 | 0.00 | 0.00 | 0.00 | 99 | 1015.7 |
| 20260503070902 | 33 | 254 | 0.0 | 0.0 | 0.00 | 0.00 | 0.00 | 99 | 1015.5 |
| 20260503070400 | 33 | 254 | 0.0 | 0.0 | 0.00 | 0.00 | 0.00 | 99 | 1015.4 |
| 20260503060326 | 35 | 255 | 0.0 | 0.0 | 0.00 | 0.00 | 0.00 | 99 | 1015.7 |
| 20260503054814 | 35 | 255 | 0.0 | 0.0 | 0.00 | 0.00 | 0.00 | 99 | 1015.6 |
| 20260503054309 | 35 | 255 | 0.0 | 0.0 | 0.00 | 0.00 | 0.00 | 99 | 1015.6 |
| 20260503053808 | 35 | 255 | 0.0 | 0.0 | 0.00 | 0.00 | 0.00 | 99 | 1015.7 |
| 20260503053306 | 35 | 255 | 0.0 | 0.0 | 0.00 | 0.00 | 0.00 | 99 | 1015.9 |
| 20260503052802 | 35 | 255 | 0.0 | 0.0 | 0.00 | 0.00 | 0.00 | 99 | 1015.6 |
| 20260503052259 | 35 | 255 | 0.0 | 0.0 | 0.00 | 0.00 | 0.00 | 99 | 1015.8 |
| 20260503051754 | 35 | 255 | 0.0 | 0.0 | 0.00 | 0.00 | 0.00 | 99 | 1015.9 |
| 20260503051252 | 35 | 255 | 0.0 | 0.0 | 0.00 | 0.00 | 0.00 | 99 | 1016.0 |
| 20260503050748 | 35 | 256 | 0.0 | 0.0 | 0.00 | 0.00 | 0.00 | 99 | 1016.0 |
| 20260503050244 | 35 | 256 | 0.0 | 0.0 | 0.00 | 0.00 | 0.00 | 99 | 1015.8 |
| 20260503045742 | 35 | 256 | 0.0 | 0.0 | 0.00 | 0.00 | 0.00 | 99 | 1016.1 |
| 20260503045240 | 35 | 256 | 0.0 | 0.0 | 0.00 | 0.00 | 0.00 | 98 | 1016.0 |
| 20260503044736 | 35 | 256 | 0.0 | 0.0 | 0.00 | 0.00 | 0.00 | 98 | 1016.3 |
| 20260503044233 | 35 | 256 | 0.0 | 0.0 | 0.00 | 0.00 | 0.00 | 98 | 1016.1 |
| 20260503043730 | 35 | 256 | 0.0 | 0.0 | 0.00 | 0.00 | 0.00 | 98 | 1016.1 |
| 20260503043227 | 35 | 256 | 0.0 | 0.0 | 0.00 | 0.00 | 0.00 | 98 | 1015.9 |
| 20260503042723 | 36 | 256 | 0.0 | 0.0 | 0.00 | 0.00 | 0.00 | 98 | 1016.1 |
| 20260503042220 | 36 | 256 | 0.0 | 0.0 | 0.00 | 0.00 | 0.00 | 98 | 1016.1 |
| 20260503041716 | 36 | 256 | 0.0 | 0.0 | 0.00 | 0.00 | 0.00 | 97 | 1016.2 |
| 20260503041214 | 36 | 256 | 0.0 | 0.0 | 0.00 | 0.00 | 0.00 | 97 | 1015.9 |
| 20260503040711 | 36 | 256 | 0.0 | 0.0 | 0.00 | 0.00 | 0.00 | 97 | 1016.1 |
| 20260503040209 | 36 | 256 | 0.0 | 0.0 | 0.00 | 0.00 | 0.00 | 97 | 1016.1 |
| 20260503035705 | 36 | 256 | 0.0 | 0.0 | 0.00 | 0.02 | 0.02 | 97 | 1016.2 |
| 20260503035203 | 35 | 256 | 0.0 | 0.0 | 0.00 | 0.02 | 0.02 | 97 | 1016.1 |
| 20260503034700 | 35 | 256 | 0.0 | 0.0 | 0.00 | 0.02 | 0.02 | 96 | 1016.2 |
| 20260503034157 | 36 | 256 | 0.0 | 0.0 | 0.00 | 0.02 | 0.02 | 96 | 1016.3 |
| 20260503033654 | 35 | 256 | 0.0 | 0.0 | 0.00 | 0.02 | 0.02 | 96 | 1016.2 |
| 20260503033152 | 35 | 256 | 0.0 | 0.0 | 0.00 | 0.02 | 0.02 | 95 | 1016.1 |
| 20260503032650 | 35 | 256 | 0.0 | 0.0 | 0.00 | 0.02 | 0.02 | 95 | 1016.2 |
| 20260503032148 | 35 | 256 | 0.0 | 0.0 | 0.00 | 0.02 | 0.02 | 95 | 1016.2 |
| 20260503031645 | 35 | 256 | 0.0 | 0.0 | 0.00 | 0.02 | 0.02 | 94 | 1016.0 |
| 20260503031143 | 36 | 256 | 0.0 | 0.0 | 0.00 | 0.02 | 0.02 | 94 | 1016.2 |
| 20260503030638 | 35 | 256 | 0.0 | 0.0 | 0.00 | 0.02 | 0.02 | 92 | 1016.2 |
| 20260503030136 | 36 | 256 | 0.0 | 0.0 | 0.00 | 0.02 | 0.02 | 92 | 1016.1 |
| 20260503025632 | 37 | 256 | 0.0 | 0.0 | 0.00 | 0.02 | 0.02 | 92 | 1016.2 |
| 20260503025130 | 37 | 256 | 0.0 | 0.0 | 0.00 | 0.02 | 0.02 | 91 | 1016.1 |
| 20260503024626 | 37 | 256 | 0.0 | 0.0 | 0.00 | 0.02 | 0.02 | 90 | 1016.2 |
| 20260503024123 | 37 | 256 | 0.0 | 0.0 | 0.00 | 0.02 | 0.02 | 90 | 1016.2 |
| 20260503023621 | 37 | 256 | 0.0 | 0.0 | 0.00 | 0.02 | 0.02 | 88 | 1016.4 |
| 20260503023118 | 37 | 256 | 0.0 | 0.0 | 0.00 | 0.02 | 0.02 | 85 | 1016.4 |
| 20260503022613 | 38 | 256 | 0.0 | 0.0 | 0.00 | 0.02 | 0.02 | 84 | 1016.3 |
| 20260503022108 | 38 | 256 | 0.0 | 0.0 | 0.00 | 0.02 | 0.02 | 84 | 1016.1 |
| 20260503021606 | 39 | 256 | 0.0 | 0.0 | 0.00 | 0.02 | 0.02 | 83 | 1016.0 |
| 20260503021102 | 39 | 256 | 0.0 | 0.0 | 0.00 | 0.02 | 0.02 | 82 | 1016.2 |
| 20260503020559 | 40 | 256 | 0.0 | 0.0 | 0.00 | 0.02 | 0.02 | 82 | 1016.1 |
| 20260503020056 | 40 | 256 | 0.0 | 0.0 | 0.00 | 0.02 | 0.02 | 81 | 1016.1 |
| 20260503015553 | 40 | 256 | 0.0 | 0.0 | 0.00 | 0.02 | 0.02 | 81 | 1016.3 |
| 20260503015050 | 40 | 255 | 0.0 | 0.0 | 0.00 | 0.02 | 0.02 | 81 | 1016.1 |
| 20260503014546 | 40 | 256 | 0.0 | 0.0 | 0.00 | 0.02 | 0.02 | 81 | 1016.2 |
| 20260503014044 | 40 | 256 | 0.0 | 0.0 | 0.00 | 0.02 | 0.02 | 81 | 1016.3 |
| 20260503013541 | 40 | 256 | 0.0 | 0.0 | 0.00 | 0.02 | 0.02 | 81 | 1016.4 |
| 20260503013039 | 40 | 259 | 0.0 | 0.0 | 0.00 | 0.02 | 0.02 | 83 | 1016.2 |
| 20260503012536 | 40 | 257 | 0.0 | 0.0 | 0.00 | 0.02 | 0.02 | 83 | 1016.2 |
| 20260503012032 | 40 | 258 | 0.0 | 0.0 | 0.00 | 0.02 | 0.02 | 83 | 1016.4 |
| 20260503011529 | 40 | 259 | 0.0 | 0.0 | 0.00 | 0.02 | 0.02 | 83 | 1016.2 |
| 20260503011026 | 40 | 258 | 0.0 | 0.0 | 0.00 | 0.02 | 0.02 | 82 | 1016.2 |
| 20260503010522 | 40 | 256 | 0.0 | 0.0 | 0.00 | 0.02 | 0.02 | 81 | 1016.0 |
| 20260503010020 | 40 | 256 | 0.0 | 0.0 | 0.00 | 0.02 | 0.02 | 80 | 1016.1 |
| 20260503005517 | 40 | 256 | 0.0 | 0.0 | 0.00 | 0.02 | 0.02 | 79 | 1016.2 |
| 20260503005015 | 41 | 258 | 0.0 | 0.0 | 0.00 | 0.02 | 0.02 | 78 | 1016.1 |
| 20260503004510 | 41 | 258 | 0.0 | 0.0 | 0.00 | 0.02 | 0.02 | 77 | 1016.1 |
| 20260503004009 | 41 | 258 | 0.0 | 0.0 | 0.00 | 0.02 | 0.02 | 75 | 1016.1 |
| 20260503003505 | 41 | 258 | 0.0 | 0.0 | 0.00 | 0.02 | 0.02 | 74 | 1015.7 |
| 20260503003002 | 41 | 263 | 0.0 | 0.0 | 0.00 | 0.02 | 0.02 | 74 | 1015.9 |
| 20260503002459 | 41 | 257 | 0.0 | 0.0 | 0.00 | 0.02 | 0.02 | 76 | 1015.8 |
| 20260503001955 | 41 | 264 | 0.0 | 0.0 | 0.00 | 0.02 | 0.02 | 75 | 1015.8 |
| 20260503001452 | 42 | 260 | 0.0 | 1.0 | 0.00 | 0.02 | 0.02 | 76 | 1015.8 |
| 20260503000949 | 42 | 258 | 1.0 | 1.0 | 0.00 | 0.02 | 0.02 | 74 | 1015.8 |
| 20260503000447 | 42 | 270 | 1.0 | 1.0 | 0.00 | 0.02 | 0.02 | 74 | 1015.9 |
| 20260502235944 | 42 | 306 | 2.0 | 2.0 | 0.00 | 0.02 | 0.02 | 75 | 1015.9 |
| 20260502235440 | 42 | 262 | 0.0 | 1.0 | 0.00 | 0.02 | 0.02 | 74 | 1015.7 |
| 20260502234938 | 42 | 255 | 0.0 | 0.0 | 0.00 | 0.02 | 0.02 | 73 | 1015.6 |
| 20260502234434 | 42 | 256 | 0.0 | 0.0 | 0.00 | 0.02 | 0.02 | 73 | 1015.5 |
| 20260502233932 | 42 | 260 | 0.0 | 0.0 | 0.00 | 0.02 | 0.02 | 72 | 1015.2 |
| 20260502233427 | 42 | 261 | 1.0 | 1.0 | 0.00 | 0.02 | 0.02 | 72 | 1015.5 |
| 20260502232924 | 43 | 260 | 0.0 | 1.0 | 0.00 | 0.02 | 0.02 | 72 | 1015.4 |
| 20260502232420 | 43 | 261 | 0.0 | 0.0 | 0.00 | 0.02 | 0.02 | 71 | 1015.5 |
| 20260502231918 | 43 | 270 | 0.0 | 0.0 | 0.00 | 0.02 | 0.02 | 71 | 1015.5 |
| 20260502231415 | 43 | 288 | 2.0 | 2.0 | 0.00 | 0.02 | 0.02 | 69 | 1015.6 |
| 20260502230913 | 43 | 260 | 0.0 | 0.0 | 0.00 | 0.02 | 0.02 | 70 | 1015.5 |
| 20260502230411 | 43 | 269 | 0.0 | 1.0 | 0.00 | 0.02 | 0.02 | 70 | 1015.6 |
| 20260502225908 | 43 | 252 | 1.0 | 1.0 | 0.00 | 0.02 | 0.02 | 69 | 1015.5 |
| 20260502225404 | 43 | 292 | 1.0 | 1.0 | 0.00 | 0.02 | 0.02 | 70 | 1015.7 |
| 20260502224901 | 43 | 280 | 1.0 | 2.0 | 0.00 | 0.02 | 0.02 | 71 | 1015.5 |
| 20260502224357 | 44 | 253 | 0.0 | 0.0 | 0.00 | 0.02 | 0.02 | 72 | 1015.3 |
| 20260502223855 | 44 | 263 | 0.0 | 1.0 | 0.00 | 0.02 | 0.02 | 72 | 1015.4 |
| 20260502223352 | 44 | 262 | 0.0 | 0.0 | 0.00 | 0.02 | 0.02 | 71 | 1015.5 |
| 20260502222850 | 44 | 263 | 1.0 | 1.0 | 0.00 | 0.02 | 0.02 | 71 | 1015.4 |
| 20260502222348 | 44 | 260 | 0.0 | 1.0 | 0.00 | 0.02 | 0.02 | 70 | 1015.5 |
| 20260502221843 | 44 | 268 | 0.0 | 1.0 | 0.00 | 0.02 | 0.02 | 71 | 1015.5 |
| 20260502221339 | 44 | 258 | 0.0 | 1.0 | 0.00 | 0.02 | 0.02 | 71 | 1015.4 |
| 20260502220837 | 44 | 258 | 0.0 | 1.0 | 0.00 | 0.02 | 0.02 | 72 | 1015.5 |
| 20260502220332 | 44 | 218 | 0.0 | 0.0 | 0.00 | 0.02 | 0.02 | 72 | 1015.6 |
| 20260502215829 | 44 | 227 | 1.0 | 1.0 | 0.00 | 0.02 | 0.02 | 71 | 1015.5 |
| 20260502215327 | 44 | 255 | 0.0 | 0.0 | 0.00 | 0.02 | 0.02 | 71 | 1015.3 |
| 20260502214824 | 44 | 254 | 1.0 | 1.0 | 0.00 | 0.02 | 0.02 | 71 | 1015.3 |
| 20260502214320 | 44 | 262 | 1.0 | 1.0 | 0.00 | 0.02 | 0.02 | 73 | 1015.3 |
| 20260502213817 | 44 | 257 | 0.0 | 1.0 | 0.00 | 0.02 | 0.02 | 75 | 1015.3 |
| 20260502213314 | 44 | 261 | 0.0 | 0.0 | 0.00 | 0.02 | 0.02 | 73 | 1015.3 |
| 20260502212814 | 44 | 261 | 0.0 | 1.0 | 0.00 | 0.02 | 0.02 | 76 | 1015.2 |
| 20260502212311 | 44 | 256 | 0.0 | 0.0 | 0.00 | 0.02 | 0.02 | 76 | 1015.2 |
| 20260502211808 | 44 | 257 | 0.0 | 1.0 | 0.00 | 0.02 | 0.02 | 76 | 1015.2 |
| 20260502211304 | 43 | 261 | 1.0 | 1.0 | 0.00 | 0.02 | 0.02 | 75 | 1015.4 |
| 20260502210801 | 44 | 146 | 2.0 | 2.0 | 0.00 | 0.02 | 0.02 | 75 | 1015.2 |
| 20260502210259 | 44 | 255 | 0.0 | 1.0 | 0.00 | 0.02 | 0.02 | 77 | 1015.1 |
| 20260502205755 | 43 | 263 | 0.0 | 1.0 | 0.00 | 0.02 | 0.02 | 77 | 1015.1 |
| 20260502205251 | 43 | 256 | 0.0 | 0.0 | 0.00 | 0.02 | 0.02 | 79 | 1015.2 |
| 20260502204749 | 43 | 263 | 1.0 | 1.0 | 0.00 | 0.02 | 0.02 | 79 | 1015.2 |
| 20260502204246 | 42 | 259 | 0.0 | 1.0 | 0.00 | 0.02 | 0.02 | 78 | 1015.3 |
| 20260502203744 | 43 | 87 | 2.0 | 2.0 | 0.00 | 0.02 | 0.02 | 78 | 1015.2 |
| 20260502203241 | 43 | 266 | 0.0 | 0.0 | 0.00 | 0.02 | 0.02 | 79 | 1015.3 |
| 20260502202735 | 43 | 263 | 0.0 | 0.0 | 0.00 | 0.02 | 0.02 | 77 | 1015.1 |
| 20260502202234 | 43 | 263 | 1.0 | 1.0 | 0.00 | 0.02 | 0.02 | 76 | 1015.0 |
| 20260502201731 | 43 | 324 | 2.0 | 3.0 | 0.00 | 0.02 | 0.02 | 77 | 1015.2 |
| 20260502201227 | 43 | 246 | 1.0 | 2.0 | 0.00 | 0.02 | 0.02 | 76 | 1015.3 |
| 20260502200724 | 43 | 292 | 1.0 | 2.0 | 0.00 | 0.02 | 0.02 | 76 | 1015.3 |
| 20260502200220 | 44 | 228 | 2.0 | 2.0 | 0.00 | 0.02 | 0.02 | 75 | 1015.4 |
| 20260502195719 | 43 | 325 | 5.0 | 6.0 | 0.00 | 0.02 | 0.02 | 76 | 1015.5 |
| 20260502195215 | 43 | 300 | 1.0 | 2.0 | 0.00 | 0.02 | 0.02 | 75 | 1015.6 |
| 20260502194711 | 43 | 257 | 1.0 | 1.0 | 0.00 | 0.02 | 0.02 | 75 | 1015.4 |
| 20260502194209 | 44 | 279 | 1.0 | 2.0 | 0.00 | 0.02 | 0.02 | 76 | 1015.5 |
| 20260502193704 | 43 | 262 | 1.0 | 2.0 | 0.00 | 0.02 | 0.02 | 78 | 1015.5 |
| 20260502193202 | 42 | 309 | 2.0 | 2.0 | 0.00 | 0.02 | 0.02 | 78 | 1015.7 |
| 20260502192656 | 41 | 261 | 1.0 | 1.0 | 0.00 | 0.02 | 0.02 | 82 | 1015.8 |
| 20260502192154 | 41 | 340 | 3.0 | 3.0 | 0.00 | 0.02 | 0.02 | 83 | 1015.9 |
| 20260502191651 | 41 | 349 | 3.0 | 3.0 | 0.00 | 0.02 | 0.02 | 84 | 1015.9 |
| 20260502191149 | 41 | 285 | 1.0 | 1.0 | 0.00 | 0.02 | 0.02 | 85 | 1015.6 |
| 20260502190646 | 41 | 261 | 2.0 | 2.0 | 0.00 | 0.02 | 0.02 | 84 | 1016.0 |
| 20260502190144 | 41 | 265 | 0.0 | 1.0 | 0.00 | 0.02 | 0.02 | 84 | 1016.1 |
| 20260502185638 | 41 | 66 | 2.0 | 3.0 | 0.00 | 0.02 | 0.02 | 84 | 1016.0 |
| 20260502185135 | 42 | 255 | 2.0 | 2.0 | 0.00 | 0.02 | 0.02 | 82 | 1015.9 |